Time,TemperatureF,DewpointF,PressureIn,WindDirection,WindDirectionDegrees,WindSpeedMPH,WindSpeedGustMPH,Humidity,HourlyPrecipIn,Conditions,Clouds,dailyrainin,SoftwareType,DateUTC
2013-03-06 00:00:00,50.4,49.8,29.83,SSW,196,21.0,31.0,98,0.00,CLR,,0.00,WeatherDisplay:10.37,2013-03-06 08:00:00,
2013-03-06 00:15:00,50.2,49.6,29.83,SSW,192,18.0,30.0,98,0.00,CLR,,0.00,WeatherDisplay:10.37,2013-03-06 08:15:00,
2013-03-06 00:30:00,50.2,49.6,29.83,South,189,20.0,30.0,98,0.00,CLR,,0.00,WeatherDisplay:10.37,2013-03-06 08:30:00,
2013-03-06 00:45:00,50.4,49.8,29.83,South,191,17.0,31.0,98,0.00,CLR,,0.00,WeatherDisplay:10.37,2013-03-06 08:45:00,
2013-03-06 01:00:00,50.4,49.8,29.83,South,188,17.0,28.0,98,0.00,CLR,,0.00,WeatherDisplay:10.37,2013-03-06 09:00:00,
2013-03-06 01:15:00,50.7,50.2,29.83,SSW,199,15.0,23.0,98,0.00,CLR,,0.00,WeatherDisplay:10.37,2013-03-06 09:15:00,
2013-03-06 01:30:00,51.3,50.7,29.83,South,191,15.0,22.0,98,0.00,CLR,,0.00,WeatherDisplay:10.37,2013-03-06 09:30:00,
2013-03-06 01:45:00,51.6,51.1,29.83,SSW,209,9.0,22.0,98,0.00,CLR,,0.00,WeatherDisplay:10.37,2013-03-06 09:45:00,
2013-03-06 02:00:00,50.9,50.4,29.83,SW,216,10.0,17.0,98,0.00,CLR,,0.00,WeatherDisplay:10.37,2013-03-06 10:00:00,
2013-03-06 02:15:00,50.4,49.8,29.83,SW,218,7.0,14.0,98,0.00,CLR,,0.00,WeatherDisplay:10.37,2013-03-06 10:15:00,
2013-03-06 02:30:00,51.2,50.6,29.85,SW,221,9.0,14.0,98,0.00,CLR,,0.00,WeatherDisplay:10.37,2013-03-06 10:30:00,
2013-03-06 02:45:00,51.3,50.8,29.85,SW,214,8.0,15.0,98,0.00,CLR,,0.00,WeatherDisplay:10.37,2013-03-06 10:45:00,
2013-03-06 03:00:00,51.3,50.7,29.85,SW,220,9.0,15.0,98,0.00,CLR,,0.00,WeatherDisplay:10.37,2013-03-06 11:00:00,
2013-03-06 03:15:00,51.7,51.1,29.85,WSW,241,18.0,30.0,98,0.00,CLR,,0.00,WeatherDisplay:10.37,2013-03-06 11:15:00,
2013-03-06 03:30:00,52.3,51.8,29.85,WSW,251,17.0,26.0,98,0.00,CLR,,0.00,WeatherDisplay:10.37,2013-03-06 11:30:00,
2013-03-06 03:45:00,52.1,51.5,29.85,WSW,253,20.0,28.0,98,0.00,CLR,,0.00,WeatherDisplay:10.37,2013-03-06 11:45:00,
2013-03-06 04:00:00,51.7,51.2,29.85,WSW,255,18.0,26.0,98,0.00,CLR,,0.00,WeatherDisplay:10.37,2013-03-06 12:00:00,
2013-03-06 04:15:00,51.4,50.9,29.88,West,269,15.0,24.0,98,0.00,CLR,,0.00,WeatherDisplay:10.37,2013-03-06 12:15:00,
2013-03-06 04:30:00,50.9,50.4,29.88,West,267,13.0,24.0,98,0.00,CLR,,0.00,WeatherDisplay:10.37,2013-03-06 12:30:00,
2013-03-06 04:45:00,50.5,50.0,29.88,West,262,17.0,23.0,98,0.00,CLR,,0.00,WeatherDisplay:10.37,2013-03-06 12:45:00,
2013-03-06 05:00:00,50.5,50.0,29.88,West,278,13.0,23.0,98,0.00,CLR,,0.00,WeatherDisplay:10.37,2013-03-06 13:00:00,
2013-03-06 05:15:00,50.2,49.7,29.91,West,267,10.0,18.0,98,0.00,CLR,,0.00,WeatherDisplay:10.37,2013-03-06 13:15:00,
2013-03-06 05:30:00,50.2,49.6,29.91,WSW,258,13.0,17.0,98,0.00,CLR,,0.00,WeatherDisplay:10.37,2013-03-06 13:30:00,
2013-03-06 05:45:00,50.2,49.6,29.91,WSW,252,15.0,20.0,98,0.00,CLR,,0.00,WeatherDisplay:10.37,2013-03-06 13:45:00,
2013-03-06 06:00:00,50.2,49.6,29.91,WSW,248,13.0,17.0,98,0.00,CLR,,0.00,WeatherDisplay:10.37,2013-03-06 14:00:00,
2013-03-06 06:15:00,50.1,49.6,29.91,WSW,248,14.0,20.0,98,0.00,CLR,,0.00,WeatherDisplay:10.37,2013-03-06 14:15:00,
2013-03-06 06:30:00,50.2,49.6,29.91,WSW,253,13.0,17.0,98,0.00,CLR,,0.00,WeatherDisplay:10.37,2013-03-06 14:30:00,
2013-03-06 06:45:00,50.0,49.5,29.91,WSW,256,16.0,17.0,98,0.00,CLR,,0.00,WeatherDisplay:10.37,2013-03-06 14:45:00,
2013-03-06 07:00:00,50.4,49.8,29.94,WSW,249,13.0,17.0,98,0.00,CLR,,0.00,WeatherDisplay:10.37,2013-03-06 15:00:00,
2013-03-06 07:15:00,50.4,49.8,29.94,WSW,246,12.0,18.0,98,0.00,CLR,,0.00,WeatherDisplay:10.37,2013-03-06 15:15:00,
2013-03-06 07:30:00,50.9,50.4,29.94,WSW,249,14.0,16.0,98,0.00,CLR,,0.00,WeatherDisplay:10.37,2013-03-06 15:30:00,
2013-03-06 07:45:00,50.9,50.4,29.94,WSW,250,10.0,17.0,98,0.00,CLR,,0.00,WeatherDisplay:10.37,2013-03-06 15:45:00,
2013-03-06 08:00:00,51.3,50.7,29.94,WSW,244,13.0,15.0,98,0.00,CLR,,0.00,WeatherDisplay:10.37,2013-03-06 16:00:00,
2013-03-06 08:15:00,51.6,51.1,29.97,WSW,246,12.0,15.0,98,0.00,CLR,,0.00,WeatherDisplay:10.37,2013-03-06 16:15:00,
2013-03-06 08:30:00,52.2,51.6,29.97,WSW,240,10.0,16.0,98,0.00,CLR,,0.00,WeatherDisplay:10.37,2013-03-06 16:30:00,
2013-03-06 08:45:00,53.0,52.5,29.97,SW,234,9.0,14.0,98,0.00,CLR,,0.00,WeatherDisplay:10.37,2013-03-06 16:45:00,
2013-03-06 09:00:00,53.4,52.9,30.00,SW,217,7.0,14.0,98,0.00,CLR,,0.00,WeatherDisplay:10.37,2013-03-06 17:00:00,
2013-03-06 09:15:00,53.2,52.7,30.00,WSW,240,10.0,13.0,98,0.00,CLR,,0.00,WeatherDisplay:10.37,2013-03-06 17:15:00,
2013-03-06 09:30:00,53.4,52.9,30.00,SW,230,8.0,14.0,98,0.00,CLR,,0.00,WeatherDisplay:10.37,2013-03-06 17:30:00,
2013-03-06 09:45:00,53.4,52.9,30.00,SW,234,12.0,14.0,98,0.00,CLR,,0.00,WeatherDisplay:10.37,2013-03-06 17:45:00,
2013-03-06 10:00:00,53.8,53.2,30.00,SW,219,9.0,14.0,98,0.00,CLR,,0.00,WeatherDisplay:10.37,2013-03-06 18:00:00,
2013-03-06 10:15:00,54.5,53.4,30.00,SW,228,10.0,14.0,96,0.00,CLR,,0.00,WeatherDisplay:10.37,2013-03-06 18:15:00,
2013-03-06 10:30:00,55.3,53.6,30.00,SW,230,8.0,14.0,94,0.00,CLR,,0.00,WeatherDisplay:10.37,2013-03-06 18:30:00,
2013-03-06 10:45:00,56.3,54.3,30.03,SW,215,6.0,12.0,93,0.00,CLR,,0.00,WeatherDisplay:10.37,2013-03-06 18:45:00,
2013-03-06 11:00:00,57.0,55.0,30.03,SW,220,7.0,9.0,93,0.00,CLR,,0.00,WeatherDisplay:10.37,2013-03-06 19:00:00,
2013-03-06 11:15:00,56.7,54.7,30.03,SW,233,8.0,10.0,93,0.00,CLR,,0.00,WeatherDisplay:10.37,2013-03-06 19:15:00,
2013-03-06 11:30:00,56.3,54.3,30.03,WSW,239,9.0,11.0,93,0.00,CLR,,0.00,WeatherDisplay:10.37,2013-03-06 19:30:00,
2013-03-06 11:45:00,57.2,55.2,30.03,WSW,239,8.0,10.0,93,0.00,CLR,,0.00,WeatherDisplay:10.37,2013-03-06 19:45:00,
2013-03-06 12:00:00,57.4,55.1,30.03,WSW,240,9.0,12.0,92,0.00,CLR,,0.00,WeatherDisplay:10.37,2013-03-06 20:00:00,
2013-03-06 12:15:00,57.6,55.0,30.03,WSW,239,9.0,12.0,91,0.00,CLR,,0.00,WeatherDisplay:10.37,2013-03-06 20:15:00,
2013-03-06 12:30:00,58.5,55.8,30.03,SW,221,7.0,9.0,91,0.00,CLR,,0.00,WeatherDisplay:10.37,2013-03-06 20:30:00,
2013-03-06 12:45:00,59.2,56.2,30.03,SW,218,6.0,10.0,90,0.00,CLR,,0.00,WeatherDisplay:10.37,2013-03-06 20:45:00,
2013-03-06 13:00:00,59.9,56.3,30.03,SW,215,5.0,9.0,88,0.00,CLR,,0.00,WeatherDisplay:10.37,2013-03-06 21:00:00,
2013-03-06 13:15:00,60.4,56.9,30.03,SSW,205,6.0,9.0,88,0.00,CLR,,0.00,WeatherDisplay:10.37,2013-03-06 21:15:00,
2013-03-06 13:30:00,60.5,56.6,30.03,SSW,208,6.0,9.0,87,0.00,CLR,,0.00,WeatherDisplay:10.37,2013-03-06 21:30:00,
2013-03-06 13:45:00,60.6,56.1,30.03,SSW,206,6.0,7.0,85,0.00,CLR,,0.00,WeatherDisplay:10.37,2013-03-06 21:45:00,
2013-03-06 14:00:00,60.7,56.5,30.03,SSW,213,3.0,7.0,86,0.00,CLR,,0.00,WeatherDisplay:10.37,2013-03-06 22:00:00,
2013-03-06 14:15:00,60.6,56.7,30.00,SW,214,6.0,8.0,87,0.00,CLR,,0.00,WeatherDisplay:10.37,2013-03-06 22:15:00,
2013-03-06 14:30:00,60.3,56.5,30.03,SSW,207,5.0,9.0,87,0.00,CLR,,0.00,WeatherDisplay:10.37,2013-03-06 22:30:00,
2013-03-06 14:45:00,60.1,56.2,30.03,SSW,211,7.0,9.0,87,0.00,CLR,,0.00,WeatherDisplay:10.37,2013-03-06 22:45:00,
2013-03-06 15:00:00,58.7,54.9,30.03,SW,230,8.0,12.0,87,0.00,CLR,,0.00,WeatherDisplay:10.37,2013-03-06 23:00:00,
2013-03-06 15:15:00,57.8,54.3,30.03,SW,225,8.0,12.0,88,0.00,CLR,,0.00,WeatherDisplay:10.37,2013-03-06 23:15:00,
2013-03-06 15:30:00,56.8,53.9,30.03,SW,235,9.0,13.0,90,0.00,CLR,,0.00,WeatherDisplay:10.37,2013-03-06 23:30:00,
2013-03-06 15:45:00,56.3,53.4,30.03,WSW,243,9.0,12.0,90,0.00,CLR,,0.00,WeatherDisplay:10.37,2013-03-06 23:45:00,
2013-03-06 16:00:00,56.8,54.2,30.03,WSW,239,7.0,11.0,91,0.00,CLR,,0.00,WeatherDisplay:10.37,2013-03-07 00:00:00,
2013-03-06 16:15:00,57.1,54.5,30.03,SW,225,6.0,9.0,91,0.00,CLR,,0.00,WeatherDisplay:10.37,2013-03-07 00:15:00,
2013-03-06 16:30:00,57.8,54.6,30.03,SW,218,6.0,9.0,89,0.00,CLR,,0.00,WeatherDisplay:10.37,2013-03-07 00:30:00,
2013-03-06 16:45:00,58.0,53.9,30.03,SW,225,5.0,7.0,86,0.00,CLR,,0.00,WeatherDisplay:10.37,2013-03-07 00:45:00,
2013-03-06 17:00:00,56.8,52.7,30.00,SSW,205,3.0,9.0,86,0.00,CLR,,0.00,WeatherDisplay:10.37,2013-03-07 01:00:00,
2013-03-06 17:15:00,56.3,52.5,30.00,SSW,209,3.0,6.0,87,0.00,CLR,,0.00,WeatherDisplay:10.37,2013-03-07 01:15:00,
2013-03-06 17:30:00,55.8,51.9,30.00,SW,215,3.0,6.0,87,0.00,CLR,,0.00,WeatherDisplay:10.37,2013-03-07 01:30:00,
2013-03-06 17:45:00,54.8,51.3,30.00,SSW,213,3.0,6.0,88,0.00,CLR,,0.00,WeatherDisplay:10.37,2013-03-07 01:45:00,
2013-03-06 18:00:00,53.2,50.4,30.00,SW,231,5.0,7.0,90,0.00,CLR,,0.00,WeatherDisplay:10.37,2013-03-07 02:00:00,
2013-03-06 18:15:00,52.1,49.9,30.00,SW,226,3.0,6.0,92,0.00,CLR,,0.00,WeatherDisplay:10.37,2013-03-07 02:15:00,
2013-03-06 18:30:00,51.4,49.8,30.00,SW,223,3.0,6.0,94,0.00,CLR,,0.00,WeatherDisplay:10.37,2013-03-07 02:30:00,
2013-03-06 18:45:00,50.7,49.9,30.00,SW,226,5.0,6.0,97,0.00,CLR,,0.00,WeatherDisplay:10.37,2013-03-07 02:45:00,
2013-03-06 19:00:00,50.5,50.0,30.00,WSW,243,6.0,7.0,98,0.00,CLR,,0.00,WeatherDisplay:10.37,2013-03-07 03:00:00,
2013-03-06 19:15:00,50.4,49.8,30.00,WSW,239,5.0,7.0,98,0.00,CLR,,0.00,WeatherDisplay:10.37,2013-03-07 03:15:00,
2013-03-06 19:30:00,50.2,49.6,30.00,WSW,248,5.0,6.0,98,0.00,CLR,,0.00,WeatherDisplay:10.37,2013-03-07 03:30:00,
2013-03-06 19:45:00,50.4,49.8,30.00,WSW,237,5.0,7.0,98,0.00,CLR,,0.00,WeatherDisplay:10.37,2013-03-07 03:45:00,
2013-03-06 20:00:00,50.5,50.0,30.00,WSW,243,5.0,7.0,98,0.00,CLR,,0.00,WeatherDisplay:10.37,2013-03-07 04:00:00,
2013-03-06 20:15:00,50.5,50.0,30.00,WSW,246,5.0,6.0,98,0.00,CLR,,0.00,WeatherDisplay:10.37,2013-03-07 04:15:00,
2013-03-06 20:30:00,50.7,50.2,30.00,WSW,238,7.0,7.0,98,0.00,CLR,,0.00,WeatherDisplay:10.37,2013-03-07 04:30:00,
2013-03-06 20:45:00,50.7,50.2,30.00,WSW,241,5.0,8.0,98,0.00,CLR,,0.00,WeatherDisplay:10.37,2013-03-07 04:45:00,
2013-03-06 21:00:00,50.4,49.8,29.97,SW,229,5.0,7.0,98,0.00,CLR,,0.00,WeatherDisplay:10.37,2013-03-07 05:00:00,
2013-03-06 21:15:00,49.8,49.3,29.97,SW,231,2.0,7.0,98,0.00,CLR,,0.00,WeatherDisplay:10.37,2013-03-07 05:15:00,
2013-03-06 21:30:00,49.1,48.6,29.97,SSW,203,2.0,5.0,98,0.00,CLR,,0.00,WeatherDisplay:10.37,2013-03-07 05:30:00,
2013-03-06 21:45:00,48.9,48.4,29.97,SSW,207,3.0,6.0,98,0.00,CLR,,0.00,WeatherDisplay:10.37,2013-03-07 05:45:00,
2013-03-06 22:00:00,48.7,48.2,29.97,SSW,195,2.0,5.0,98,0.00,CLR,,0.00,WeatherDisplay:10.37,2013-03-07 06:00:00,
2013-03-06 22:15:00,48.2,47.7,29.97,SE,132,1.0,5.0,98,0.00,CLR,,0.00,WeatherDisplay:10.37,2013-03-07 06:15:00,
2013-03-06 22:30:00,47.8,47.3,29.97,South,170,1.0,3.0,98,0.00,CLR,,0.00,WeatherDisplay:10.37,2013-03-07 06:30:00,
2013-03-06 22:45:00,47.7,47.1,29.97,East,97,5.0,5.0,98,0.00,CLR,,0.00,WeatherDisplay:10.37,2013-03-07 06:45:00,
2013-03-06 23:00:00,47.7,47.1,29.97,ESE,111,1.0,5.0,98,0.00,CLR,,0.00,WeatherDisplay:10.37,2013-03-07 07:00:00,
2013-03-06 23:15:00,47.3,46.8,29.97,SE,135,0.0,3.0,98,0.00,CLR,,0.00,WeatherDisplay:10.37,2013-03-07 07:15:00,
2013-03-06 23:30:00,46.1,45.5,29.97,SE,125,1.0,3.0,98,0.00,CLR,,0.00,WeatherDisplay:10.37,2013-03-07 07:30:00,
2013-03-06 23:45:00,45.3,44.8,29.97,ESE,108,2.0,3.0,98,0.00,CLR,,0.00,WeatherDisplay:10.37,2013-03-07 07:45:00,